星链-30545 (STARLINK-30545 )

导读

STARLINK-30545是美国太空探索技术公司(SpaceX)星链(Starlink)星座中的一颗卫星,由SpaceX于2023年10月5日发射升空,隶属于美国。星链计划旨在构建全球卫星互联网星座,为全球偏远地区等提供高速互联网接入服务,STARLINK-30545的入轨进一步扩充了星链星座的规模,推动星座组网进程。

基本信息
目录编号:
58000
目录名称:
STARLINK-30545
国际标识:
2023-153K
轨道中心:
EARTH
卫星名称:
星链-30545
卫星全名:
星链-30545 (STARLINK-30545 )
卫星状态:
在轨 (已飞行989 天)
发射日期:
2023-10-05 UTC
国别 :
美国 (US)
星等 :
--
轨道信息
数据来源 国际轨道数据 AOE轨道数据
星历时间 2026-06-19T17:10:22+0800
1天前
查看轨道信息
2026-06-17T06:00:00+0800
3天前
查看轨道信息
半长轴 6861.187km 6861.201km
偏心率 0.0001526 0.000209
轨道倾角 43.003° 43.004°
近地点辐角 264.385° 279.317°
升交点赤经 212.348° 226.284°
平近点角 95.682° 186.171°
近地点 482.002km 481.63km
远地点 484.098km 484.498km
周期 94.267分钟 94.267分钟
每日圈数 15.2758 15.275753
详细信息
固有亮度:
5
最大亮度:
0.3
卫星平台:
Starlink v2.0 mini
覆盖范围:
全球
运营商:
太空探索技术公司
运营商所在国:
美国
制造商(研发单位):
太空探索技术公司
制造商所在国:
美国
使用方式:
暂无
卫星简介
星链(Starlink)计划是由太空探索技术公司(SpaceX)提出的一个巨型低轨卫星互联网星座项目,计划在2019年至2024年间在太空搭建由约1.2万颗卫星组成的“星链”网络,其中1584颗将部署在地球上空550千米处的近地轨道,并从2020年开始工作。该卫星仍在工作。
2D轨道图
3D轨道图
轨道高度分析图
轨道倾角分析图
轨道综合分析图
查看轨道综合分析图